Weather History for Casper, WY

Change the Weather History Date:

Wednesday, November 13, 2013

  Actual Average Record
Temperature  
Mean Temperature 45 °F 34 °F  
Max Temperature 56 °F 46 °F 69 °F (1999)
Min Temperature 33 °F 23 °F -11 °F (1986)
Degree Days  
Heating Degree Days 20 31  
Month to date heating degree days 369 362  
Since 1 July heating degree days 1258 1261  
Cooling Degree Days 0 0  
Month to date cooling degree days 0 0  
Year to date cooling degree days 618 422  
Moisture  
Dew Point 24 °F    
Average Humidity 59    
Maximum Humidity 92    
Minimum Humidity 26    
Precipitation  
Precipitation T in 0.03 in 0.46 in (1985)
Month to date precipitation 0.01 0.38  
Year to date precipitation 13.71 11.65  
Snow  
Snow 0.00 in 0.40 in - ()
Month to date snowfall 0.1 4.3  
Since 1 July snowfall 21.3 13.5  
Since 1 September snowfall 21.3 13.5  
Snow Depth 0.00 in    
Sea Level Pressure  
Sea Level Pressure 30.13 in    
Wind  
Wind Speed 15 mph (SW)    
Max Wind Speed 24 mph    
Max Gust Speed 30 mph    
Visibility 10 miles    
Events      
T = Trace of Precipitation, MM = Missing Value Source: NWS Daily Summary

Daily Weather History Graph

Daily Weather History Graph

Search for Another Location

Airport:

Trip Planner

Search our weather history database for the weather conditions in past years. The results will help you decide how hot, cold, wet, or windy it might be!

Date:

Astronomy

Nov. 13, 2013 Rise Set
Actual Time 6:55 AM MST 4:44 PM MST
Civil Twilight 6:25 AM MST 5:14 PM MST
Nautical Twilight 5:51 AM MST 5:48 PM MST
Astronomical Twilight 5:17 AM MST 6:22 PM MST
Moon 2:37 PM MST (11/13) 2:46 AM MST (11/13)
Length of Visible Light 10h 49m
Length of Day
9h 48m
Waxing Gibbous, 85% of the Moon is Illuminated
Nov 13
Waxing Gibbous
Nov 17
Full
Nov 25
Last Quarter
Dec 2
New
Dec 9
First Quarter

Hourly Weather History & Observations

Time (MST) Temp. Windchill Dew Point Humidity Pressure Visibility Wind Dir Wind Speed Gust Speed Precip Events Conditions
12:53 AM 46.9 °F - 19.0 °F 33% 30.22 in 10.0 mi SW 16.1 mph - N/A   Clear
1:53 AM 46.9 °F - 19.9 °F 34% 30.20 in 10.0 mi SSW 19.6 mph 25.3 mph N/A   Clear
2:53 AM 46.0 °F 39.3 °F 19.9 °F 35% 30.20 in 10.0 mi SW 16.1 mph - N/A   Clear
3:53 AM 45.0 °F 38.2 °F 19.9 °F 37% 30.20 in 10.0 mi SW 15.0 mph 20.7 mph N/A   Clear
4:53 AM 46.0 °F 37.8 °F 19.9 °F 35% 30.21 in 10.0 mi SSW 23.0 mph - N/A   Clear
5:53 AM 45.0 °F 37.1 °F 19.9 °F 37% 30.21 in 10.0 mi SW 19.6 mph - N/A   Clear
6:53 AM 45.0 °F 39.3 °F 19.0 °F 36% 30.18 in 10.0 mi SW 11.5 mph - N/A   Clear
7:53 AM 46.0 °F 38.5 °F 19.0 °F 34% 30.16 in 10.0 mi SW 19.6 mph 25.3 mph N/A   Clear
8:53 AM 48.9 °F - 19.0 °F 31% 30.16 in 10.0 mi SW 25.3 mph 35.7 mph N/A   Clear
9:53 AM 51.1 °F - 19.9 °F 29% 30.14 in 10.0 mi SW 24.2 mph 31.1 mph N/A   Clear
10:53 AM - - - N/A% - - North - - N/A   Unknown
11:53 AM 54.0 °F - 19.9 °F 26% 30.15 in 10.0 mi SSW 23.0 mph 29.9 mph N/A   Unknown
12:53 PM 53.1 °F - 21.0 °F 29% 30.12 in 10.0 mi SW 16.1 mph 26.5 mph N/A   Overcast
1:53 PM 54.0 °F - 19.9 °F 26% 30.09 in 10.0 mi SW 16.1 mph - N/A   Overcast
2:53 PM 55.0 °F - 21.9 °F 28% 30.06 in 10.0 mi SSW 12.7 mph - N/A   Partly Cloudy
3:53 PM 54.0 °F - 21.0 °F 28% 30.06 in 10.0 mi SW 12.7 mph - N/A   Scattered Clouds
4:53 PM 50.0 °F - 21.9 °F 33% 30.05 in 10.0 mi SW 10.4 mph - N/A   Overcast
5:53 PM 46.9 °F - 23.0 °F 39% 30.06 in 10.0 mi West 6.9 mph - N/A   Overcast
6:53 PM 46.9 °F - 25.0 °F 42% 30.07 in 10.0 mi NW 10.4 mph - N/A   Overcast
7:53 PM 45.0 °F 40.6 °F 28.9 °F 53% 30.08 in 10.0 mi NNW 8.1 mph - N/A   Overcast
8:53 PM 41.0 °F 36.4 °F 37.0 °F 86% 30.09 in 10.0 mi SSE 6.9 mph - 0.00 in   Overcast
9:53 PM 41.0 °F 36.4 °F 37.0 °F 86% 30.07 in 10.0 mi South 6.9 mph - N/A   Overcast
10:53 PM 37.0 °F 31.6 °F 35.1 °F 93% 30.10 in 10.0 mi NNW 6.9 mph - N/A   Mostly Cloudy
11:53 PM 34.0 °F 28.8 °F 33.1 °F 96% 30.07 in 10.0 mi West 5.8 mph - N/A   Mostly Cloudy